This is the latest recevied weather packets stored in our database for station/object N0EDB-13. If no packets are shown the sender has not sent any weather packets the latest 10 day(s).
| Time | Temp. | Humidity | Pressure | Rain* | Wind** | Luminosity | Snow |
|---|---|---|---|---|---|---|---|
| 1777920566 | 23.33° C | 23% | 1454.6 hPa | 0 mm | - | 795 W/m² | - |
| 1777920266 | 22.78° C | 24% | 1455.7 hPa | 0 mm | - | 856 W/m² | - |
| 1777919966 | 22.78° C | 24% | 1456 hPa | 0 mm | - | 583 W/m² | - |
| 1777919665 | 22.78° C | 24% | 1455.8 hPa | 0 mm | - | 626 W/m² | - |
| 1777919364 | 22.78° C | 25% | 1456.7 hPa | 0 mm | - | 853 W/m² | - |
| 1777919063 | 22.22° C | 26% | 1457.7 hPa | 0 mm | - | 965 W/m² | - |
| 1777918763 | 22.22° C | 26% | 1458.4 hPa | 0 mm | - | 645 W/m² | - |
| 1777918463 | 22.22° C | 26% | 1458.7 hPa | 0 mm | - | 573 W/m² | - |
| 1777918162 | 21.67° C | 27% | 1459.3 hPa | 0 mm | - | 744 W/m² | - |
| 1777917861 | 21.67° C | 27% | 1460.1 hPa | 0 mm | - | 689 W/m² | - |
| 1777917560 | 21.11° C | 26% | 1460.7 hPa | 0 mm | - | 627 W/m² | - |
| 1777917259 | 21.11° C | 27% | 1460.9 hPa | 0 mm | - | 599 W/m² | - |
| 1777916956 | 21.11° C | 27% | 1460.7 hPa | 0 mm | - | 570 W/m² | - |
| 1777916655 | 21.11° C | 27% | 1461.1 hPa | 0 mm | - | 630 W/m² | - |
| 1777916355 | 21.11° C | 26% | 1461.3 hPa | 0 mm | - | 661 W/m² | - |
| 1777916055 | 20.56° C | 28% | 1462.4 hPa | 0 mm | - | 663 W/m² | - |
| 1777915755 | 20.56° C | 28% | 1462.9 hPa | 0 mm | - | 650 W/m² | - |
| 1777915454 | 20.56° C | 28% | 1463.2 hPa | 0 mm | - | 683 W/m² | - |
| 1777915153 | 20.56° C | 28% | 1463.4 hPa | 0 mm | - | 495 W/m² | - |
| 1777914853 | 20° C | 29% | 1464.4 hPa | 0 mm | - | 629 W/m² | - |
| 1777914552 | 20° C | 29% | 1464.7 hPa | 0 mm | - | 445 W/m² | - |
| 1777914251 | 20° C | 29% | 1465.1 hPa | 0 mm | - | 386 W/m² | - |
| 1777913950 | 20° C | 29% | 1465.5 hPa | 0 mm | - | 380 W/m² | - |
| 1777913650 | 19.44° C | 29% | 1465.6 hPa | 0 mm | - | 355 W/m² | - |
| 1777913350 | 19.44° C | 29% | 1466 hPa | 0 mm | - | 354 W/m² | - |
* Rain latest hour (hover to see other rain measurements)
** Current wind speed in m/s (hover to see current wind gust speed)